Regional Weather Roundup
Issued by NWS

Home | Current Version | Previous Version | Text Only | Print | Product List | Glossary Off
Versions: 1 2 3 4 5 6 7 8 9 10 11 12 13 14 15 16 17 18 19 20 21 22 23 24 25 26 27 28 29 30 31 32 33 34 35 36 37 38 39 40 41 42 43 44 45 46 47 48 49 50

532
ASUS43 KLOT 240003
RWRIL

ILLINOIS REGIONAL WEATHER ROUNDUP
NATIONAL WEATHER SERVICE CHICAGO/ROMEOVILLE IL
700 PM CDT SUN JUL 23 2017

NOTE: "FAIR" INDICATES FEW OR NO CLOUDS BELOW 12,000 FEET WITH NO
SIGNIFICANT WEATHER AND/OR OBSTRUCTIONS TO VISIBILITY.

* THESE STATIONS ARE NOT UNDER NWS QUALITY CONTROL. THEY ALSO MAY NOT
  REPORT WEATHER SUCH AS PRECIPITATION OR FOG.

ILZ001-002-007-009-015-016-024-240100-
NORTHWEST ILLINOIS

CITY           SKY/WX    TMP DP  RH WIND       PRES   REMARKS
MOLINE         SUNNY     82  62  50 NW10      29.85R HX  83
6HR MIN TEMP:  82; 6HR MAX TEMP:  90;

STERLING*      PTSUNNY   80  67  64 N6        29.84R HX  82
SAVANNA*       MOSUNNY   81  62  53 NW12      29.84R HX  82
$$

ILZ003-004-008-010-011-017-018-240100-
NORTH CENTRAL ILLINOIS

CITY           SKY/WX    TMP DP  RH WIND       PRES   REMARKS
ROCKFORD       MOSUNNY   78  69  73 NE5       29.84R HX  80
6HR MIN TEMP:  75; 6HR MAX TEMP:  89; 6HR PCP:  0.09;

FREEPORT*      PTSUNNY   78  63  59 N8        29.86R HX  80
ROCHELLE*      CLOUDY    77  69  76 N6        29.84S
DE KALB*       PTSUNNY   71  67  88 CALM      29.84S
PERU*          MOSUNNY  N/A N/A N/A N13       29.84R
$$

ILZ005-006-012>014-019>023-240100-
NORTHEAST ILLINOIS

CITY           SKY/WX    TMP DP  RH WIND       PRES   REMARKS
CHICAGO-OHARE  CLOUDY    73  63  70 CALM      29.81R
6HR MIN TEMP:  70; 6HR MAX TEMP:  90; 6HR PCP:  0.21;

CHICAGO-MIDWAY CLOUDY    76  63  64 CALM      29.80R
6HR MIN TEMP:  73; 6HR MAX TEMP:  91; 6HR PCP:  0.03;

AURORA         CLOUDY    71  66  84 CALM      29.82R
6HR MIN TEMP:  69; 6HR MAX TEMP:  88; 6HR PCP:  0.11;

LANSING*       PTSUNNY   74  64  69 N7        29.80F
JOLIET*        MOSUNNY   71  65  82 S6        29.81F
WAUKEGAN       CLOUDY    75  67  76 VRB3      29.80S
6HR MIN TEMP:  72; 6HR MAX TEMP:  87; 6HR PCP:  0.03;

DUPAGE AIRPORT CLOUDY    72  67  84 W5        29.81R
6HR MIN TEMP:  67; 6HR MAX TEMP:  87; 6HR PCP:  0.50;

WHEELING       CLOUDY    73  67  81 NW3       29.83R
6HR MIN TEMP:  70; 6HR MAX TEMP:  88; 6HR PCP:  0.12;

MORRIS*        MOSUNNY   72  65  79 SE8       29.81R
ROMEOVILLE*    CLOUDY    70  62  77 S7        29.80F
NORTHERLY ISL    N/A     77  62  59 NW2         N/A
$$

LMZ740>746-240100-
SOUTHERN LAKE MICHIGAN

STATION/POSITION SKY/WX   TEMP    WIND        PRES    VSBY  WAVE
                          AIR SEA DIR/SP/G                  HT/PER
                          (F)     (DEG/KT/KT) (MB)    (MI)  (FT/S)
SOUTHERN BUOY              72 71   20/  6/  8 1008.5          0
WILMETTE HARBOR            73 74  280/  6/  8   N/A           1/ 2
HARRISON CRIB              77     300/  7/  7   N/A
BURNHAM HARBOR             77                   N/A
CALUMET HARBOR             75     270/  4/  9 1009.3R
BURNS HARBOR               76     340/ 11/ 16 1010.2F
MICHIGAN CITY              76     340/ 12/ 13   N/A
MICHIGAN CITY 6N           77 76  360/  8/ 12   N/A           1/ 2
ST. JOSEPH                 75 75   60/ 10/ 14 1008.2S         2/ 2
$$

ILZ025>027-034>036-040-047-049-050-058-095>099-240100-
WEST-CENTRAL ILLINOIS

CITY           SKY/WX    TMP DP  RH WIND       PRES   REMARKS
QUINCY         MOSUNNY   89  70  53 NE8       29.83S HX  94
MACOMB*        SUNNY     83  69  62 N8        29.86S HX  87
JACKSONVILLE*  PTSUNNY   80  69  68 S6        29.84S HX  82
PITTSFIELD*    CLOUDY    79  70  74 S5        29.85F HX  82
$$

ILZ028>032-037-038-041>044-048-051>054-059>061-240100-
CENTRAL ILLINOIS

CITY           SKY/WX    TMP DP  RH WIND       PRES   REMARKS
PONTIAC        MOSUNNY   84  72  67 NW15G22   29.82R HX  89
BLOOMINGTON    MOSUNNY   84  69  60 W8        29.84R HX  88
DECATUR        PTSUNNY   86  72  62 SW9       29.84R HX  92
PEORIA         SUNNY     85  67  54 N7        29.84R HX  87
6HR MIN TEMP:  85; 6HR MAX TEMP:  90;

LACON*         SUNNY     82  67  59 NW8       29.83R HX  84
LINCOLN*       CLOUDY    89  75  63 CALM      29.83R HX  98
SPRINGFIELD    CLOUDY    81  69  67 SW7       29.84R HX  84
6HR MIN TEMP:  81; 6HR MAX TEMP:  92;

TAYLORVILLE    CLOUDY    79  75  89 CALM      29.84F HX  82
6HR MIN TEMP:  75; 6HR MAX TEMP:  89; 6HR PCP:  0.19;

$$

ILZ033-039-045-046-055>057-062-063-240100-
EAST-CENTRAL ILLINOIS

CITY           SKY/WX    TMP DP  RH WIND       PRES   REMARKS
CHAMPAIGN      MOSUNNY   84  74  71 SW7       29.83S HX  91
RANTOUL*       PTSUNNY   85  73  68 SW6       29.82S HX  92
MATTOON        SUNNY     85  74  69 CALM      29.83R HX  92
PARIS*         SUNNY     81  75  81 W6        29.84S HX  86
$$

ILZ079-100>102-240100-
SOUTHWEST ILLINOIS

CITY           SKY/WX    TMP DP  RH WIND       PRES   REMARKS
ALTON          MOSUNNY   86  73  66 W9        29.85F HX  93
BELLEVILLE     MOSUNNY   88  67  48 SW5       29.84F HX  91
CAHOKIA*       MOSUNNY   90  65  43 W5        29.83F HX  92
SPARTA*        SUNNY     87  66  48 W5        29.85F HX  89
$$

ILZ064>066-069>071-074>076-080>082-084>086-088>090-092>094-240100-
SOUTH-CENTRAL ILLINOIS

CITY           SKY/WX    TMP DP  RH WIND       PRES   REMARKS
CARBONDALE     SUNNY     87  72  60 CALM      29.84F HX  93
6HR MIN TEMP:  85; 6HR MAX TEMP:  89;

CAIRO*         MOSUNNY   89  73  58 CALM      29.83S HX  96
EFFINGHAM*     SUNNY     85  74  69 SW5       29.86S HX  93
MARION         MOSUNNY  102  73  39 N5        29.85F HX 114
MT. VERNON     SUNNY     85  70  60 CALM      29.84F HX  89
CENTRALIA*     SUNNY     86  73  65 CALM      29.84F HX  93
SALEM*         SUNNY     86  69  57 SW5       29.84F HX  89
METROPOLIS*    MOSUNNY   87  73  63 CALM      29.85S HX  95
$$

ILZ067-068-072-073-078-083-087-091-240100-
SOUTHEAST ILLINOIS

CITY           SKY/WX    TMP DP  RH WIND       PRES   REMARKS
LAWRENCEVILLE  SUNNY     85  72  65 W5        29.83F HX  91
FLORA*         SUNNY     86  72  63 SW6       29.84F HX  92
FAIRFIELD*     SUNNY     84  71  65 CALM      29.83F HX  88
HARRISBURG*    MOSUNNY   86  73  63 CALM      29.84F HX  93
ROBINSON*      SUNNY     82  74  76 W6        29.84S HX  88
CARMI*         SUNNY     83  74  74 W5        29.83F HX  89
$$

ABBREVIATIONS USED IN REMARKS
   TC - TEMPERATURE IN CELSIUS
  WCI - WIND CHILL INDEX
   HX - HEAT INDEX
  VSB - VISIBILITY
$$





USA.gov is the U.S. government's official web portal to all federal, state and local government web resources and services.